Location: Red Deer
(52.2681°N, 113.8112°W)
Time: 19:54:44
(UTC-07:00)

BlueWalker 3 - Pass Details

Date: 04 December 2022
Orbit: 499 x 517 km, 53.2° (Epoch: 05 February)

Event Time Altitude Azimuth Distance (km) Brightness Sun altitude
Rises 17:57:22 0° 276° (W) 2,629 6.9 -13.4°
Reaches altitude 10° 17:59:35 10° 278° (W) 1,738 5.7 -13.7°
Maximum altitude 18:03:31 78° 4° (N) 528 1.9 -14.2°
Enters shadow 18:05:40 26° 88° (E) 1,042 3.0 -14.6°
